[[{"header":{"parameterUnit":"m.s-1","parameterCategory":1,"la1":30.2991,"la2":30.254,"lo1":-89.0895,"lo2":-89.0444,"dy":0.0017,"dx":0.0017,"nx":28,"ny":28,"refTime":"2024-04-21T09:00:00:Z","depth":0,"parameterNumber":2,"parameterNumberName":"U-component_of_WINDS"},"data":[0,0,0,0,0,0,0,0,0,0,0,0,0,0,0,0,0,0,0,0,0,0,0,0,0,0,0,0,0,0,0,0,0,0,0,0,0,0,0,0,0,0,0,0,0,0,0,0,0,0,0,0,0,0,0,0,0,0,-0.4713,-0.4712,0,-0.4544,-0.4542,-0.454,-0.4465,-0.4465,-0.4465,-0.4465,-0.4285,-0.428,-0.4276,0,0,0,0,0,0,0,0,0,0,0,0,0,-0.4964,-0.496,-0.4714,-0.4712,-0.4709,-0.4544,-0.4542,-0.454,-0.4465,-0.4465,-0.4465,-0.4466,-0.4287,-0.4281,-0.4275,0,0,0,0,0,0,0,0,0,0,0,0,0,-0.4831,-0.4959,-0.4714,-0.4652,-0.4645,-0.4545,-0.4542,-0.4539,-0.4465,-0.4465,-0.4465,-0.4466,-0.4289,-0.4282,-0.4274,-0.4221,0,0,-0.4251,-0.4248,0,0,0,0,0,0,0,0,-0.4839,-0.4822,-0.4663,-0.4656,-0.4648,-0.4526,-0.4564,-0.4432,-0.4465,-0.4533,-0.4465,-0.4466,-0.4365,-0.4351,-0.4318,-0.4212,-0.4205,-0.4251,-0.4246,-0.4243,-0.4241,0,0,0,0,0,0,0,-0.4848,-0.4829,-0.4646,-0.4661,-0.4652,-0.463,-0.4612,-0.4539,-0.4449,-0.4527,-0.4521,-0.4502,-0.436,-0.4326,-0.4313,-0.4202,-0.4251,-0.4244,-0.4239,-0.4237,-0.404,-0.4039,0,0,0,0,0,0,-0.4868,-0.4837,-0.4652,-0.4641,-0.4746,-0.4626,-0.4605,-0.4565,-0.4449,-0.4432,-0.4502,-0.45,-0.4338,-0.4322,-0.4307,-0.4234,-0.4243,-0.4236,-0.4231,-0.4041,-0.404,-0.4039,0,0,0,0,0,0,-0.4874,-0.4853,-0.4658,-0.4737,-0.4711,-0.4621,-0.4576,-0.4561,-0.4526,-0.4431,-0.4414,-0.4484,-0.4338,-0.4317,-0.4242,-0.4227,-0.4232,-0.4226,-0.4042,-0.404,-0.4039,-0.4091,0,0,0,0,0,0,-0.4882,-0.4855,-0.4836,-0.4738,-0.4707,-0.46,-0.4576,-0.4558,-0.4514,-0.4509,-0.4409,-0.4392,-0.4337,-0.4254,-0.4235,-0.4217,-0.422,-0.4042,-0.4041,-0.404,-0.4091,-0.4092,-0.4094,0,0,0,0,0,-0.4891,-0.4857,-0.4835,-0.4813,-0.4682,-0.4599,-0.4581,-0.452,-0.4514,-0.4492,-0.443,-0.4396,-0.4232,-0.4247,-0.4225,-0.4205,-0.4043,-0.4041,-0.404,-0.409,-0.4092,-0.4094,0,0,0,0,0,0,-0.4954,-0.4843,-0.4818,-0.4752,-0.4686,-0.4587,-0.4558,-0.4524,-0.4457,-0.4455,-0.4379,-0.4357,-0.4288,-0.4238,-0.4257,-0.4145,-0.4134,-0.4128,-0.418,-0.4181,-0.4183,-0.4195,-0.4213,0,0,0,0,0,-0.496,-0.4905,-0.481,-0.476,-0.4728,-0.4649,-0.4611,-0.4569,-0.4496,-0.4468,-0.44,-0.4329,-0.4261,-0.4219,-0.4151,-0.4083,-0.4058,-0.4058,-0.4059,-0.4061,-0.4056,-0.4013,-0.4011,-0.4034,-0.4034,-0.4034,0,0,-0.4972,-0.4905,-0.4874,-0.4771,-0.4715,-0.4656,-0.4626,-0.4566,-0.4521,-0.4458,-0.4383,-0.4331,-0.4246,-0.4174,-0.4139,-0.4131,-0.4044,-0.4059,-0.4061,-0.4055,-0.4012,-0.4009,-0.4008,-0.4033,-0.4033,-0.4033,0,0,-0.4965,-0.4909,-0.4861,-0.4805,-0.4721,-0.4668,-0.4657,-0.4562,-0.4526,-0.445,-0.4401,-0.4344,-0.423,-0.4171,-0.4127,-0.4094,-0.4059,-0.4074,-0.4082,-0.4041,-0.4039,-0.4037,-0.4023,-0.4019,-0.407,-0.407,-0.407,0,-0.499,-0.4903,-0.4839,-0.4782,-0.4736,-0.4678,-0.4626,-0.4575,-0.4472,-0.4441,-0.4434,-0.4288,-0.4227,-0.4139,-0.4131,-0.4097,-0.4079,-0.4085,-0.4045,-0.4042,-0.4039,-0.4025,-0.402,-0.4072,-0.4072,-0.4072,-0.4071,0,-0.4936,-0.4876,-0.4846,-0.4751,-0.4702,-0.4647,-0.4573,-0.4531,-0.4493,-0.444,-0.4361,-0.4286,-0.4201,-0.4177,-0.4139,-0.4082,-0.408,-0.406,-0.4047,-0.404,-0.4026,-0.402,-0.4075,-0.4075,-0.4074,-0.4073,0,0,-0.4965,-0.4834,-0.4824,-0.4778,-0.468,-0.4631,-0.4572,-0.4491,-0.4455,-0.4386,-0.4333,-0.4236,-0.4217,-0.4166,-0.412,-0.4084,-0.406,-0.4068,-0.4065,-0.4067,-0.399,-0.4005,-0.4,-0.4037,-0.4035,-0.4034,-0.3997,0,-0.4942,-0.4838,-0.4778,-0.4697,-0.4638,-0.4581,-0.4529,-0.4462,-0.441,-0.435,-0.4292,-0.4224,-0.4205,-0.4173,-0.4136,-0.4072,-0.4044,-0.4074,-0.3984,-0.3981,-0.4006,-0.3993,-0.4009,-0.3977,-0.3991,-0.399,-0.3989,0,-0.4903,-0.4836,-0.4749,-0.4656,-0.4629,-0.4584,-0.4503,-0.4448,-0.4369,-0.4333,-0.4276,-0.423,-0.4163,-0.4156,-0.406,-0.4082,-0.4041,-0.4004,-0.4001,-0.3989,-0.3984,-0.3979,-0.3965,-0.396,-0.398,-0.398,-0.3981,0,-0.493,-0.4818,-0.4751,-0.4714,-0.4604,-0.4573,-0.4525,-0.4446,-0.4401,-0.4329,-0.4298,-0.4219,-0.4175,-0.4114,-0.4046,-0.4048,-0.3956,-0.3945,-0.3922,-0.3924,-0.3905,-0.3907,-0.3883,-0.3881,-0.3881,-0.3881,-0.3882,0,-0.4911,-0.4859,-0.4761,-0.472,-0.4659,-0.459,-0.4531,-0.4478,-0.4408,-0.4353,-0.4298,-0.4247,-0.4162,-0.4099,-0.4046,-0.3973,-0.3954,-0.3921,-0.3907,-0.3925,-0.3929,-0.3897,-0.3897,-0.388,-0.388,-0.3881,-0.3881,0,-0.4931,-0.4863,-0.4786,-0.4688,-0.4662,-0.4621,-0.4536,-0.4491,-0.4437,-0.4367,-0.4347,-0.4259,-0.4183,-0.411,-0.4007,-0.397,-0.3897,-0.388,-0.3924,-0.3916,-0.3897,-0.3899,-0.3851,-0.3839,-0.3848,-0.3848,-0.3848,0,-0.4923,-0.4882,-0.4779,-0.4739,-0.4693,-0.463,-0.4583,-0.4511,-0.4464,-0.4369,-0.4336,-0.4256,-0.4187,-0.4067,-0.3992,-0.3912,-0.3891,-0.388,-0.3879,-0.3897,-0.3888,-0.3891,-0.3885,-0.3881,-0.3881,-0.3882,-0.3882,0,-0.4915,-0.4883,-0.4819,-0.4741,-0.4687,-0.4623,-0.4556,-0.4526,-0.4441,-0.439,-0.4312,-0.4259,-0.4154,-0.4073,-0.3984,-0.3931,-0.3891,-0.3883,-0.3873,-0.389,-0.3917,-0.39,-0.3927,-0.3884,-0.3884,-0.3884,-0.3883,-0.3883,-0.4919,-0.4879,-0.48,-0.4729,-0.4672,-0.461,-0.4564,-0.4503,-0.4437,-0.4347,-0.4308,-0.4228,-0.4146,-0.4023,-0.397,-0.3905,-0.3895,-0.3882,-0.3878,-0.3875,-0.3878,-0.3929,-0.3888,-0.3888,-0.3888,-0.3888,-0.3888,0,-0.4906,-0.4852,-0.4788,-0.4697,-0.464,-0.461,-0.4533,-0.4487,-0.4418,-0.4347,-0.4281,-0.4189,-0.411,-0.4029,-0.3944,-0.3907,-0.3886,-0.3887,-0.3888,-0.3876,-0.3892,-0.3908,-0.3905,-0.3905,-0.3905,-0.3905,-0.3905,-0.3905,-0.4893,-0.4823,-0.4782,-0.4682,-0.4627,-0.455,-0.4509,-0.445,-0.4392,-0.4293,-0.4228,-0.4176,-0.4099,-0.4009,-0.3934,-0.3911,-0.3882,-0.3888,-0.386,-0.3876,-0.3876,-0.3875,-0.3889,-0.3882,-0.3882,-0.3849,-0.3849,-0.3849]},{"header":{"parameterUnit":"m.s-1","parameterCategory":1,"la1":30.2991,"la2":30.254,"lo1":-89.0895,"lo2":-89.0444,"dy":0.0017,"dx":0.0017,"nx":28,"ny":28,"refTime":"2024-04-21T09:00:00:Z","depth":0,"parameterNumber":3,"parameterNumberName":"V-component_of_WINDS"},"data":[0,0,0,0,0,0,0,0,0,0,0,0,0,0,0,0,0,0,0,0,0,0,0,0,0,0,0,0,0,0,0,0,0,0,0,0,0,0,0,0,0,0,0,0,0,0,0,0,0,0,0,0,0,0,0,0,0,0,1.4691,1.4692,0,1.4795,1.4796,1.4797,1.4721,1.4717,1.4714,1.4711,1.4815,1.4821,1.4827,0,0,0,0,0,0,0,0,0,0,0,0,0,1.442,1.4426,1.4691,1.4692,1.4693,1.4795,1.4796,1.4798,1.4721,1.4717,1.4713,1.4709,1.4814,1.482,1.4828,0,0,0,0,0,0,0,0,0,0,0,0,0,1.4533,1.4427,1.469,1.4667,1.4666,1.4795,1.4796,1.4798,1.4722,1.4717,1.4712,1.4707,1.4811,1.482,1.4829,1.4984,0,0,1.4856,1.486,0,0,0,0,0,0,0,0,1.4526,1.4542,1.467,1.4669,1.4668,1.474,1.4739,1.486,1.4724,1.4701,1.4711,1.4705,1.4794,1.4804,1.4835,1.4989,1.4994,1.4856,1.4862,1.4866,1.4868,0,0,0,0,0,0,0,1.4519,1.4538,1.4732,1.4671,1.4671,1.465,1.4661,1.4762,1.4775,1.4703,1.4697,1.4711,1.4793,1.4826,1.4837,1.4995,1.4856,1.4864,1.487,1.4873,1.5279,1.5284,0,0,0,0,0,0,1.4513,1.4532,1.4728,1.4735,1.4584,1.4659,1.4671,1.4722,1.4773,1.4776,1.4715,1.4707,1.4814,1.4826,1.484,1.5024,1.4866,1.4874,1.4879,1.5273,1.528,1.5286,0,0,0,0,0,0,1.4508,1.4532,1.4724,1.4632,1.4655,1.4669,1.4727,1.4727,1.476,1.4783,1.4784,1.4747,1.481,1.4827,1.4948,1.5026,1.4878,1.4886,1.5267,1.5275,1.5283,1.5394,0,0,0,0,0,0,1.4501,1.453,1.4591,1.4634,1.466,1.4833,1.4732,1.4732,1.4776,1.4766,1.4813,1.4816,1.4808,1.4935,1.4957,1.5036,1.4893,1.526,1.5271,1.528,1.5383,1.5405,1.5423,0,0,0,0,0,1.4491,1.4618,1.4595,1.4619,1.4737,1.4838,1.4852,1.4841,1.4783,1.4843,1.4856,1.4815,1.5014,1.4949,1.4972,1.5055,1.5255,1.5268,1.5279,1.5374,1.5401,1.5423,0,0,0,0,0,0,1.4584,1.4623,1.4598,1.4743,1.4787,1.4824,1.49,1.4869,1.4931,1.4919,1.4901,1.4912,1.5038,1.5058,1.4985,1.5206,1.5125,1.5143,1.5189,1.5214,1.5234,1.5226,1.49,0,0,0,0,0,1.4621,1.4701,1.4731,1.4856,1.488,1.4886,1.493,1.4916,1.4962,1.498,1.5003,1.5047,1.5119,1.5168,1.5236,1.5385,1.5393,1.5453,1.5473,1.549,1.5505,1.5583,1.561,1.5326,1.5326,1.5326,0,0,1.4699,1.4731,1.4782,1.4875,1.4908,1.499,1.4903,1.4993,1.5053,1.4993,1.5109,1.5127,1.5175,1.531,1.5371,1.5331,1.5585,1.5505,1.5518,1.5525,1.5598,1.5625,1.5649,1.5334,1.5333,1.5332,0,0,1.4883,1.4916,1.5022,1.5057,1.5108,1.5111,1.5136,1.5178,1.5188,1.5303,1.5259,1.5329,1.5455,1.549,1.5525,1.5718,1.5682,1.5741,1.5845,1.5922,1.5944,1.5964,1.6031,1.6056,1.5756,1.5756,1.5757,0,1.4973,1.5096,1.5081,1.5174,1.5215,1.5165,1.5271,1.5305,1.5376,1.5404,1.5358,1.5513,1.5542,1.5684,1.5731,1.5761,1.5788,1.5736,1.5942,1.5962,1.598,1.6044,1.607,1.5763,1.5762,1.5762,1.5761,0,1.5203,1.5289,1.5368,1.5438,1.5488,1.5587,1.5585,1.5637,1.5619,1.5626,1.5742,1.5775,1.5848,1.588,1.5863,1.6019,1.5992,1.5945,1.5863,1.6014,1.6074,1.6099,1.5773,1.5771,1.5768,1.5767,0,0,1.5451,1.5509,1.5538,1.5568,1.5619,1.5684,1.5779,1.5851,1.5895,1.5944,1.6023,1.6129,1.6084,1.6123,1.611,1.6177,1.6326,1.612,1.6121,1.6157,1.6497,1.6532,1.6561,1.6301,1.6306,1.631,1.6492,0,1.5636,1.5805,1.5792,1.595,1.6028,1.5979,1.6062,1.6101,1.611,1.6175,1.6184,1.6259,1.6195,1.6218,1.6282,1.6294,1.6394,1.6281,1.6373,1.6376,1.6363,1.6593,1.6632,1.6803,1.6516,1.652,1.6523,0,1.5876,1.5933,1.6099,1.6137,1.6168,1.6244,1.6306,1.637,1.6412,1.6413,1.6456,1.643,1.6524,1.644,1.6568,1.6491,1.6528,1.6539,1.6545,1.6554,1.6459,1.6607,1.6857,1.6883,1.656,1.6557,1.6554,0,1.6038,1.6157,1.6271,1.6298,1.6345,1.6398,1.642,1.6457,1.65,1.6554,1.6581,1.6646,1.6681,1.673,1.6722,1.6661,1.6852,1.6767,1.6854,1.6855,1.6898,1.6895,1.7157,1.6921,1.6921,1.6921,1.692,0,1.6246,1.635,1.6344,1.6415,1.6528,1.6511,1.6623,1.6638,1.6671,1.6742,1.6703,1.677,1.6755,1.6821,1.6814,1.692,1.6937,1.6939,1.6936,1.6943,1.6943,1.6967,1.6955,1.6927,1.6926,1.6925,1.6923,0,1.6448,1.6448,1.6569,1.6603,1.6613,1.6695,1.6723,1.6788,1.6792,1.6882,1.6902,1.6909,1.6984,1.698,1.7065,1.706,1.7191,1.7174,1.7178,1.7174,1.7261,1.7253,1.7548,1.7586,1.7326,1.7328,1.733,0,1.6581,1.6659,1.6701,1.6746,1.6771,1.6844,1.6887,1.6872,1.6918,1.6971,1.7029,1.7101,1.7158,1.728,1.7291,1.7355,1.7339,1.7438,1.7349,1.7352,1.734,1.7336,1.7343,1.7456,1.7459,1.7461,1.7463,0,1.6817,1.6812,1.6877,1.6941,1.6994,1.7043,1.7088,1.7127,1.7117,1.717,1.7247,1.7291,1.7377,1.7448,1.7508,1.7528,1.7494,1.7491,1.7514,1.7523,1.7521,1.7522,1.7225,1.7485,1.7483,1.7481,1.748,1.7479,1.6987,1.7054,1.7093,1.7165,1.7198,1.724,1.7303,1.7314,1.7378,1.7448,1.7434,1.752,1.7557,1.7635,1.7661,1.7726,1.7691,1.7725,1.7734,1.7743,1.7752,1.751,1.7737,1.7736,1.7736,1.7735,1.7735,0,1.7221,1.7243,1.731,1.7374,1.743,1.7393,1.744,1.7489,1.7565,1.7603,1.7659,1.7746,1.7814,1.783,1.7895,1.7944,1.7929,1.7961,1.7958,1.7962,1.7781,1.7754,1.7972,1.7971,1.7971,1.7971,1.7971,1.7971,1.7349,1.7459,1.7459,1.7584,1.7604,1.7689,1.7719,1.7757,1.7787,1.7886,1.7942,1.7952,1.7981,1.8046,1.8106,1.8109,1.8134,1.8173,1.8169,1.7999,1.7975,1.7953,1.7927,1.8178,1.8178,1.8345,1.8347,1.8348]}]]